[[{"header":{"parameterUnit":"m.s-1","parameterCategory":1,"la1":30.2991,"la2":30.254,"lo1":-89.0895,"lo2":-89.0444,"dy":0.0017,"dx":0.0017,"nx":28,"ny":28,"refTime":"2025-04-29T03:00:00:Z","depth":0,"parameterNumber":2,"parameterNumberName":"U-component_of_WINDS"},"data":[0,0,0,0,0,0,0,0,0,0,0,0,0,0,0,0,0,0,0,0,0,0,0,0,0,0,0,0,0,0,0,0,0,0,0,0,0,0,0,0,0,0,0,0,0,0,0,0,0,0,0,0,0,0,0,0,0,0,-3.3877,-3.3877,0,-3.3829,-3.3829,-3.3828,-3.3759,-3.3758,-3.3757,-3.3755,-3.3705,-3.3705,-3.3705,0,0,0,0,0,0,0,0,0,0,0,0,0,-3.3909,-3.3909,-3.3877,-3.3877,-3.3876,-3.3829,-3.3829,-3.3828,-3.3759,-3.3758,-3.3756,-3.3755,-3.3706,-3.3705,-3.3705,0,0,0,0,0,0,0,0,0,0,0,0,0,-3.3882,-3.3909,-3.3877,-3.3836,-3.3832,-3.383,-3.3829,-3.3828,-3.3759,-3.3758,-3.3756,-3.3754,-3.3706,-3.3705,-3.3705,-3.3739,0,0,-3.3704,-3.3704,0,0,0,0,0,0,0,0,-3.3884,-3.3881,-3.3843,-3.3839,-3.3834,-3.3798,-3.3822,-3.3798,-3.376,-3.3787,-3.3755,-3.3753,-3.3738,-3.3735,-3.373,-3.3737,-3.3734,-3.3704,-3.3704,-3.3704,-3.3704,0,0,0,0,0,0,0,-3.3886,-3.3882,-3.3858,-3.3842,-3.3837,-3.382,-3.3814,-3.3817,-3.3773,-3.3784,-3.3779,-3.3775,-3.3735,-3.373,-3.3728,-3.3734,-3.3704,-3.3704,-3.3704,-3.3703,-3.3767,-3.3768,0,0,0,0,0,0,-3.3894,-3.3885,-3.386,-3.3857,-3.3855,-3.3821,-3.3814,-3.3812,-3.3773,-3.3765,-3.3776,-3.3772,-3.3732,-3.3728,-3.3726,-3.3763,-3.3704,-3.3703,-3.3703,-3.3765,-3.3767,-3.3769,0,0,0,0,0,0,-3.3895,-3.3892,-3.3862,-3.3869,-3.3864,-3.3822,-3.382,-3.3812,-3.3806,-3.3767,-3.3758,-3.3779,-3.373,-3.3726,-3.3736,-3.376,-3.3703,-3.3703,-3.3762,-3.3765,-3.3768,-3.3837,0,0,0,0,0,0,-3.3896,-3.3893,-3.3905,-3.387,-3.3864,-3.3873,-3.3821,-3.3812,-3.3806,-3.38,-3.3767,-3.376,-3.3728,-3.3737,-3.3736,-3.3758,-3.3703,-3.376,-3.3764,-3.3767,-3.3832,-3.3842,-3.385,0,0,0,0,0,-3.3897,-3.3926,-3.3906,-3.3903,-3.3879,-3.3875,-3.3871,-3.3834,-3.3808,-3.382,-3.3795,-3.3761,-3.3758,-3.3739,-3.3737,-3.376,-3.3758,-3.3763,-3.3767,-3.3828,-3.384,-3.3849,0,0,0,0,0,0,-3.3964,-3.3921,-3.3898,-3.3917,-3.39,-3.3863,-3.3877,-3.3848,-3.3837,-3.3832,-3.3786,-3.378,-3.3795,-3.3779,-3.3758,-3.3791,-3.3753,-3.3757,-3.3801,-3.3811,-3.382,-3.3823,-3.3702,0,0,0,0,0,-3.3982,-3.3982,-3.3944,-3.3964,-3.3957,-3.3919,-3.3916,-3.3889,-3.387,-3.3862,-3.3837,-3.382,-3.3815,-3.3812,-3.3806,-3.383,-3.3822,-3.3845,-3.3854,-3.3861,-3.3865,-3.3876,-3.3886,-3.3783,-3.3783,-3.3783,0,0,-3.4017,-3.3993,-3.3996,-3.3977,-3.3961,-3.3962,-3.3913,-3.3917,-3.3917,-3.3862,-3.387,-3.3852,-3.3829,-3.3847,-3.3853,-3.3833,-3.3892,-3.3867,-3.3873,-3.3872,-3.3882,-3.3891,-3.39,-3.3786,-3.3785,-3.3785,0,0,-3.4081,-3.4063,-3.4078,-3.4063,-3.404,-3.4014,-3.4018,-3.3986,-3.3972,-3.3979,-3.3938,-3.3939,-3.3931,-3.3917,-3.3908,-3.397,-3.3938,-3.3969,-3.4014,-3.4026,-3.4034,-3.4041,-3.4062,-3.407,-3.3973,-3.3973,-3.3973,0,-3.4127,-3.4127,-3.4089,-3.4095,-3.4088,-3.404,-3.4055,-3.4042,-3.4018,-3.4014,-3.3993,-3.3983,-3.3964,-3.3977,-3.3993,-3.3988,-3.3991,-3.3971,-3.4036,-3.4042,-3.4048,-3.4068,-3.4076,-3.3977,-3.3976,-3.3976,-3.3976,0,-3.4185,-3.4186,-3.4201,-3.4179,-3.4174,-3.4185,-3.4148,-3.4148,-3.4122,-3.4099,-3.4108,-3.4084,-3.4072,-3.4074,-3.4048,-3.4084,-3.4072,-3.4044,-3.4005,-3.4063,-3.408,-3.4087,-3.3982,-3.3981,-3.398,-3.3979,0,0,-3.4288,-3.4246,-3.4252,-3.4242,-3.4213,-3.4213,-3.4222,-3.4211,-3.4211,-3.4197,-3.4202,-3.4198,-3.4172,-3.4163,-3.4136,-3.4147,-3.4196,-3.4117,-3.4116,-3.4132,-3.4233,-3.4253,-3.4262,-3.4176,-3.4177,-3.4178,-3.4234,0,-3.4346,-3.4358,-3.4324,-3.4345,-3.4345,-3.43,-3.4308,-3.4292,-3.4271,-3.4269,-3.4246,-3.4243,-3.421,-3.4204,-3.4213,-3.4188,-3.4216,-3.4184,-3.418,-3.418,-3.4185,-3.4271,-3.4293,-3.4346,-3.4241,-3.4242,-3.4243,0,-3.4413,-3.4403,-3.4424,-3.4395,-3.4394,-3.4401,-3.4388,-3.4387,-3.4367,-3.4352,-3.4343,-3.4312,-3.4318,-3.4283,-3.4291,-3.4271,-3.4267,-3.4256,-3.4257,-3.4253,-3.4214,-3.4269,-3.4363,-3.4371,-3.4254,-3.4253,-3.4252,0,-3.4485,-3.4477,-3.4488,-3.448,-3.4447,-3.4453,-3.444,-3.4419,-3.4414,-3.4403,-3.44,-3.439,-3.4384,-3.4378,-3.4345,-3.4322,-3.4357,-3.4319,-3.4344,-3.4345,-3.4351,-3.4351,-3.4444,-3.4352,-3.4352,-3.4352,-3.4352,0,-3.4552,-3.4566,-3.4519,-3.4526,-3.4541,-3.4503,-3.4519,-3.4501,-3.4483,-3.4485,-3.4447,-3.445,-3.4407,-3.4406,-3.4381,-3.4391,-3.439,-3.4377,-3.4369,-3.4379,-3.4381,-3.4375,-3.437,-3.4354,-3.4354,-3.4353,-3.4353,0,-3.4633,-3.4603,-3.4612,-3.458,-3.4573,-3.4585,-3.4558,-3.4563,-3.4541,-3.4544,-3.4543,-3.4508,-3.4505,-3.4472,-3.4461,-3.4445,-3.4464,-3.4451,-3.4471,-3.4466,-3.4492,-3.4489,-3.4583,-3.4593,-3.4497,-3.4498,-3.4498,0,-3.4677,-3.4687,-3.4657,-3.4656,-3.4644,-3.4643,-3.4639,-3.4602,-3.4599,-3.4579,-3.4586,-3.458,-3.4572,-3.4569,-3.4543,-3.4534,-3.4519,-3.4553,-3.4518,-3.4527,-3.4518,-3.4518,-3.4518,-3.456,-3.4561,-3.4562,-3.4563,0,-3.4758,-3.4742,-3.4737,-3.4728,-3.4723,-3.4714,-3.4702,-3.4703,-3.4663,-3.4662,-3.4658,-3.4652,-3.4642,-3.4636,-3.4623,-3.4609,-3.4579,-3.4575,-3.458,-3.4589,-3.46,-3.4593,-3.4489,-3.4572,-3.4571,-3.4571,-3.457,-3.457,-3.4821,-3.4827,-3.4807,-3.4803,-3.4791,-3.4781,-3.4784,-3.4762,-3.4759,-3.4747,-3.4726,-3.4726,-3.4707,-3.4687,-3.4676,-3.4675,-3.4657,-3.4665,-3.4666,-3.4668,-3.4673,-3.4602,-3.4672,-3.4672,-3.4672,-3.4672,-3.4671,0,-3.4898,-3.4884,-3.488,-3.4865,-3.4862,-3.4835,-3.4821,-3.482,-3.482,-3.4805,-3.4799,-3.4795,-3.4789,-3.4763,-3.4755,-3.4759,-3.4745,-3.4758,-3.4756,-3.4753,-3.469,-3.4686,-3.4769,-3.4769,-3.4769,-3.4769,-3.4769,-3.4769,-3.4938,-3.4948,-3.4931,-3.4934,-3.4919,-3.4918,-3.4912,-3.4903,-3.4891,-3.4888,-3.4883,-3.4867,-3.4847,-3.4837,-3.4831,-3.4823,-3.4822,-3.4839,-3.4827,-3.4767,-3.4758,-3.4749,-3.4745,-3.4839,-3.4839,-3.489,-3.489,-3.4891]},{"header":{"parameterUnit":"m.s-1","parameterCategory":1,"la1":30.2991,"la2":30.254,"lo1":-89.0895,"lo2":-89.0444,"dy":0.0017,"dx":0.0017,"nx":28,"ny":28,"refTime":"2025-04-29T03:00:00:Z","depth":0,"parameterNumber":3,"parameterNumberName":"V-component_of_WINDS"},"data":[0,0,0,0,0,0,0,0,0,0,0,0,0,0,0,0,0,0,0,0,0,0,0,0,0,0,0,0,0,0,0,0,0,0,0,0,0,0,0,0,0,0,0,0,0,0,0,0,0,0,0,0,0,0,0,0,0,0,3.0538,3.0539,0,3.0559,3.056,3.056,3.0611,3.0613,3.0614,3.0615,3.0631,3.0631,3.063,0,0,0,0,0,0,0,0,0,0,0,0,0,3.0539,3.0539,3.0538,3.0539,3.0539,3.0559,3.056,3.056,3.0611,3.0613,3.0614,3.0615,3.0631,3.0631,3.063,0,0,0,0,0,0,0,0,0,0,0,0,0,3.0547,3.0538,3.0538,3.0567,3.057,3.0559,3.056,3.056,3.0611,3.0613,3.0614,3.0616,3.0632,3.0631,3.063,3.0591,0,0,3.0627,3.0627,0,0,0,0,0,0,0,0,3.0546,3.0547,3.0563,3.0565,3.0568,3.0585,3.0566,3.057,3.0611,3.0595,3.0615,3.0617,3.0614,3.0615,3.0615,3.0592,3.0593,3.0627,3.0627,3.0626,3.0626,0,0,0,0,0,0,0,3.0546,3.0546,3.0547,3.0563,3.0566,3.0578,3.0581,3.0567,3.0595,3.0597,3.06,3.0603,3.0616,3.0615,3.0616,3.0593,3.0627,3.0626,3.0626,3.0625,3.0541,3.054,0,0,0,0,0,0,3.0542,3.0545,3.0546,3.0547,3.0561,3.0576,3.058,3.0578,3.0595,3.06,3.0601,3.0605,3.0616,3.0617,3.0616,3.0573,3.0626,3.0625,3.0625,3.0543,3.0541,3.0539,0,0,0,0,0,0,3.0541,3.0541,3.0545,3.0547,3.0549,3.0575,3.0572,3.0577,3.0577,3.0599,3.0603,3.0596,3.0618,3.0618,3.0598,3.0575,3.0625,3.0624,3.0545,3.0542,3.054,3.0487,0,0,0,0,0,0,3.0541,3.0541,3.0527,3.0547,3.0548,3.0527,3.057,3.0576,3.0576,3.0581,3.0595,3.0599,3.0619,3.0599,3.0597,3.0574,3.0623,3.0547,3.0544,3.0541,3.049,3.0483,3.0476,0,0,0,0,0,3.0541,3.051,3.0526,3.0526,3.0532,3.0526,3.0527,3.0551,3.0574,3.056,3.0574,3.0599,3.0578,3.0596,3.0595,3.0571,3.0549,3.0545,3.0541,3.0494,3.0484,3.0476,0,0,0,0,0,0,3.0485,3.0513,3.0531,3.0506,3.0513,3.0534,3.0518,3.054,3.054,3.0544,3.0574,3.0577,3.0553,3.056,3.0581,3.0536,3.0567,3.0563,3.0532,3.0523,3.0516,3.0514,3.0623,0,0,0,0,0,3.047,3.0464,3.0488,3.0463,3.0466,3.0491,3.0489,3.0508,3.0516,3.0519,3.0532,3.0537,3.0532,3.0528,3.0524,3.0492,3.0496,3.0475,3.0468,3.0462,3.0457,3.0442,3.0433,3.0526,3.0526,3.0526,0,0,3.0438,3.0453,3.0447,3.0452,3.046,3.0452,3.0493,3.0483,3.0477,3.0517,3.05,3.0509,3.0517,3.0491,3.0481,3.0497,3.0432,3.0457,3.0452,3.0451,3.0437,3.0428,3.042,3.0524,3.0524,3.0525,0,0,3.0377,3.0387,3.0368,3.0376,3.0388,3.0405,3.0401,3.0419,3.0427,3.0411,3.0441,3.0434,3.0424,3.0429,3.043,3.0372,3.0395,3.037,3.0331,3.0315,3.0308,3.0302,3.0281,3.0274,3.0366,3.0366,3.0366,0,3.0335,3.0326,3.0355,3.0343,3.0345,3.0383,3.0364,3.0369,3.0378,3.0378,3.0397,3.0387,3.0395,3.0371,3.0357,3.0357,3.0352,3.0368,3.0307,3.0301,3.0295,3.0276,3.0268,3.0363,3.0363,3.0363,3.0364,0,3.0274,3.0267,3.025,3.0261,3.0261,3.0245,3.0271,3.0267,3.0286,3.0301,3.0284,3.0295,3.0295,3.0291,3.0308,3.027,3.028,3.0302,3.0334,3.0283,3.0265,3.0258,3.0358,3.0359,3.036,3.0361,0,0,3.0177,3.0206,3.0199,3.0205,3.0222,3.0216,3.0202,3.0204,3.02,3.0205,3.0194,3.0186,3.0207,3.0209,3.0227,3.0213,3.0167,3.0238,3.0238,3.0225,3.0126,3.0109,3.01,3.0183,3.0181,3.018,3.0125,0,3.0119,3.0099,3.0126,3.0098,3.0092,3.0129,3.0117,3.0125,3.0139,3.0135,3.0149,3.0143,3.0172,3.0173,3.0161,3.0176,3.0148,3.018,3.0172,3.0171,3.0169,3.0091,3.0073,3.0021,3.0119,3.0118,3.0117,0,3.0049,3.0054,3.0027,3.0047,3.0045,3.0034,3.0039,3.0034,3.0045,3.0056,3.0058,3.0081,3.0068,3.01,3.0081,3.0103,3.0101,3.0107,3.0106,3.0106,3.0141,3.0089,3.0004,2.9997,3.0106,3.0107,3.0108,0,2.9982,2.9981,2.9965,2.9969,2.9991,2.9983,2.9992,3.0004,3.0004,3.0007,3.0007,3.0008,3.0008,3.0008,3.0031,3.0051,3.001,3.0043,3.0018,3.0017,3.0007,3.0007,2.9921,3.0006,3.0006,3.0006,3.0006,0,2.9915,2.9897,2.9935,2.9925,2.9906,2.9937,2.9917,2.9929,2.994,2.9932,2.9963,2.9955,2.9986,2.998,2.9998,2.998,2.998,2.9988,2.9993,2.9985,2.9984,2.9984,2.9989,3.0004,3.0004,3.0005,3.0005,0,2.9836,2.9861,2.9846,2.987,2.9875,2.986,2.988,2.9871,2.9887,2.9878,2.9877,2.9902,2.9898,2.9921,2.992,2.9931,2.9905,2.9916,2.9902,2.9906,2.988,2.9882,2.979,2.978,2.9871,2.987,2.9869,0,2.9792,2.9779,2.9802,2.98,2.9808,2.9804,2.9805,2.9834,2.9833,2.9845,2.9835,2.9834,2.9834,2.9826,2.9843,2.9843,2.9854,2.9822,2.9854,2.9847,2.9854,2.9854,2.9853,2.9815,2.9814,2.9813,2.9812,0,2.971,2.9724,2.9725,2.973,2.973,2.9735,2.9742,2.9738,2.977,2.9767,2.9765,2.9765,2.9766,2.9764,2.9768,2.9776,2.9799,2.9802,2.9797,2.9789,2.9781,2.9785,2.9884,2.9804,2.9805,2.9805,2.9806,2.9806,2.9648,2.9639,2.9654,2.9654,2.9663,2.9669,2.9662,2.9679,2.9678,2.9682,2.9699,2.9693,2.9704,2.9712,2.9717,2.9712,2.9727,2.9719,2.9717,2.9714,2.971,2.9782,2.9713,2.9713,2.9713,2.9714,2.9714,0,2.9569,2.9581,2.9581,2.9591,2.959,2.9614,2.9623,2.9621,2.9616,2.9626,2.9626,2.9623,2.9622,2.964,2.9641,2.9634,2.9645,2.9633,2.9634,2.9635,2.9696,2.9701,2.9624,2.9624,2.9624,2.9624,2.9624,2.9624,2.9528,2.9514,2.953,2.9521,2.9532,2.9529,2.9532,2.9537,2.9545,2.9541,2.9541,2.9553,2.9566,2.9568,2.9568,2.9573,2.9572,2.9557,2.9566,2.9622,2.9631,2.9639,2.9644,2.9557,2.9556,2.9506,2.9505,2.9505]}]]